Tracking 22438 objects as of 24-Feb-2021
HD Live streaming from Space Station
objects crossing your sky now

COSMOS 1375 DEB

Track COSMOS 1375 DEB now!
10-day predictions


NORAD ID: 16202
Int'l Code: 1982-055D
Perigee: 844.2 km
Apogee: 980.6 km
Inclination: 65.8 °
Period: 103.1 minutes
Semi major axis: 7283 km
RCS: 0.038 m2 (small)
Launch date: June 6, 1982
Source: Commonwealth of Independent States (former USSR) (CIS)
Launch site: PLESETSK MISSILE AND SPACE COMPLEX (PKMTR)

Note: This is SATELLITE DEBRIS
aabbcc
Your satellite tracking list
Your tracking list is empty




NASA's NSSDC Master Catalog

Two Line Element Set (TLE):
1 16202U 82055D   21055.52216594  .00000073  00000-0  11025-3 0  9990
2 16202  65.8274 239.6702 0093609 260.6902 131.3007 13.96702709967175
Source of the keplerian elements: AFSPC